This is the latest recevied weather packets stored in our database for station/object KC5DAQ-22. If no packets are shown the sender has not sent any weather packets the latest 10 day(s).
| Time | Temp. | Humidity | Pressure | Rain* | Wind** | Luminosity | Snow |
|---|---|---|---|---|---|---|---|
| 1777674065 | 16.11° C | 96% | 1009 hPa | 2.29 mm | - | 227 W/m² | - |
| 1777674007 | 16.11° C | 96% | 1009 hPa | 2.29 mm | - | 199 W/m² | - |
| 1777673946 | 16.11° C | 96% | 1009 hPa | 2.29 mm | - | 155 W/m² | - |
| 1777673886 | 16.11° C | 96% | 1009.1 hPa | 2.54 mm | - | 146 W/m² | - |
| 1777673826 | 16.11° C | 96% | 1009.1 hPa | 2.29 mm | - | 151 W/m² | - |
| 1777673764 | 16.11° C | 96% | 1009.3 hPa | 2.29 mm | - | 134 W/m² | - |
| 1777673705 | 16.11° C | 96% | 1009.4 hPa | 2.29 mm | - | 116 W/m² | - |
| 1777673645 | 16.11° C | 96% | 1009.4 hPa | 2.29 mm | - | 107 W/m² | - |
| 1777673584 | 16.11° C | 96% | 1009.4 hPa | 2.29 mm | - | 111 W/m² | - |
| 1777673525 | 16.11° C | 96% | 1009.4 hPa | 2.54 mm | - | 109 W/m² | - |
| 1777673465 | 16.11° C | 96% | 1009.5 hPa | 2.54 mm | - | 109 W/m² | - |
| 1777673405 | 16.11° C | 96% | 1009.4 hPa | 2.54 mm | - | 93 W/m² | - |
| 1777673344 | 16.11° C | 96% | 1009.4 hPa | 2.54 mm | - | 121 W/m² | - |
| 1777673285 | 16.11° C | 96% | 1009.4 hPa | 2.54 mm | - | 134 W/m² | - |
| 1777673224 | 16.11° C | 96% | 1009.4 hPa | 2.79 mm | - | 146 W/m² | - |
| 1777673165 | 16.11° C | 96% | 1009.3 hPa | 2.79 mm | - | 192 W/m² | - |
| 1777673105 | 16.11° C | 96% | 1009.2 hPa | 2.79 mm | - | 192 W/m² | - |
| 1777673045 | 16.11° C | 96% | 1009.2 hPa | 2.79 mm | - | 148 W/m² | - |
| 1777672984 | 16.11° C | 96% | 1009.1 hPa | 2.79 mm | - | 137 W/m² | - |
| 1777672925 | 16.11° C | 96% | 1009 hPa | 2.79 mm | - | 144 W/m² | - |
| 1777672865 | 16.11° C | 96% | 1009.2 hPa | 2.79 mm | - | 125 W/m² | - |
| 1777672805 | 16.11° C | 96% | 1009.4 hPa | 3.05 mm | - | 123 W/m² | - |
| 1777672745 | 16.11° C | 96% | 1009.5 hPa | 3.05 mm | - | 127 W/m² | - |
| 1777672685 | 16.11° C | 96% | 1009.4 hPa | 3.05 mm | - | 132 W/m² | - |
| 1777672624 | 16.11° C | 97% | 1009.5 hPa | 3.3 mm | - | 130 W/m² | - |
* Rain latest hour (hover to see other rain measurements)
** Current wind speed in m/s (hover to see current wind gust speed)